Regional Weather Roundup
Issued by NWS Newport/Morehead, NC

Current Version | Previous Version | Graphics & Text | Print | Product List | Glossary Off
Versions: 1 2 3 4 5 6 7 8 9 10 11 12 13 14 15 16 17 18 19 20 21 22 23 24 25 26 27 28 29 30 31 32 33 34 35 36 37 38 39 40 41 42 43 44 45 46 47 48 49 50

000
ASUS42 KMHX 231725
RWRMHX
WEATHER ROUNDUP FOR EASTERN NORTH CAROLINA
NATIONAL WEATHER SERVICE NEWPORT/MOREHEAD CITY NC
100 PM EDT SAT MAY 23 2015

NOTE: "FAIR" INDICATES FEW OR NO CLOUDS BELOW 12,000 FEET
WITH NO SIGNIFICANT WEATHER AND/OR OBSTRUCTIONS TO VISIBILITY

NCZ015>017-031-032-045>047-102-103-231800-
NORTH COAST

CITY           SKY/WX    TMP DP  RH WIND       PRES   REMARKS
EDENTON        SUNNY     73  46  37 NE3       30.43F
ELIZABETH CITY SUNNY     70  46  42 NE12      30.45S
KITTY HAWK     SUNNY     65  48  54 NE8G16    30.43F
MANTEO         SUNNY     66  49  54 NE13      30.45S

$$

NCZ045>047-081-094-103-104-231800-
CENTRAL COAST

CITY           SKY/WX    TMP DP  RH WIND       PRES   REMARKS
FRISCO         SUNNY     70  54  56 NE10G16   30.43R
SWANQUARTER      N/A     73 N/A N/A NE10G16   30.39S

$$

NCZ095-097-098-100-101-231800-
SOUTHERN COAST

CITY           SKY/WX    TMP DP  RH WIND       PRES   REMARKS
BEAUFORT       SUNNY     78  50  37 N9        30.41S
CEDAR ISLAND     N/A     73 N/A N/A E8G15     30.47S
JACKSONVILLE   SUNNY     78  45  30 SE8       30.40F
PINEY ISLAND   SUNNY    N/A N/A N/A NE12G17   30.42R
WILMINGTON     SUNNY     78  43  28 E10       30.41S


$$

NCZ011>013-027>030-043-044-078>080-089-090>093-098-231800-
COASTAL PLAIN

CITY           SKY/WX    TMP DP  RH WIND       PRES   REMARKS
AHOSKIE        SUNNY     72  46  40 NE6       30.44F
CLINTON        SUNNY     78  51  37 CALM      30.41F
ELIZABETHTOWN  SUNNY     77  44  30 CALM      30.40F
GOLDSBORO      SUNNY    N/A N/A N/A MISG        N/A
GREENVILLE     SUNNY     75  52  43 SE5       30.43S
HAVELOCK       SUNNY     79  45  29 NE9       30.42S
KENANSVILLE    SUNNY     77  45  31 CALM      30.42F
KINSTON        SUNNY     77  52  41 NE9       30.42F
NEW BERN       SUNNY     78  50  37 NE5       30.42S
RICHLANDS      SUNNY     79  46  31 CALM      30.41F
ROCKY MOUNT    SUNNY     75  46  35 VRB7      30.43F
WASHINGTON     SUNNY     75  50  42 NE9       30.43S
WHITEVILLE     SUNNY     78  47  33 E6        30.40S

$$

AMZ130-135-150-152-154-156-158-170-250-252-270-ANZ085-086-088-633-658-670-231800-
MARINE OBSERVATIONS

STATION/POSITION TIME  TEMP    WIND        PRES    WAVE   SWELL
                       AIR SEA DIR/SP/G            HT/PER HT/PER
                 (UTC) (F)     (DEG/KT/KT) (MB)    (FT/S) (FT/S)
CHESAPEAKE LIGHT 1700   59      50/ 11/ 12 1032.1
64 E VA BEACH    1650   60 60  360/ 12/ 14 1030.3    3/ 5   2/ 8
DUCK             1700   61 64   20/ 15/ 16 1030.0
2 E DUCK         1711      63                N/A     2/ 8
OREGON INLET     1700   64 70   10/ 13/ 18 1030.7
13E OREGON INLT  1700      62                N/A     3/ 9
HATTERAS CG      1700   68 72   40/ 11/ 15 1029.9
DIAMOND BUOY     1650   69 78   30/ 12/ 16 1029.7    3/ 9   2/ 9
CAPE LOOKOUT     1700   71      50/ 13/ 14 1029.7
BEAUFORT LAB     1700   75 73   40/  6/ 11 1028.8
27 SE WRIGHTSVLE 1700   70 77   80/ 10/ 12   N/A
5 SE WRIGHTSVLE  1608   72 76   50/  8/ 12 1029.8
225 S CAPE HAT   1550   71 74   60/ 17/ 19 1027.7    5/ 5
41 SE CHARLESTON 1650   73 75   50/ 16/ 19 1027.6    4/ 5   2/11

$$



USA.gov is the U.S. government's official web portal to all federal, state and local government web resources and services.